Weather History for Middlesboro, KY

Change the Weather History Date:

Sunday, January 26, 2014

  Actual Average (KLOZ) Record (KLOZ)
Temperature  
Mean Temperature 29 °F 36 °F  
Max Temperature 49 °F 45 °F 71 °F (1962)
Min Temperature 9 °F 26 °F 3 °F (1987)
Degree Days  
Heating Degree Days 36 29  
Month to date heating degree days 771  
Since 1 July heating degree days 2423  
Cooling Degree Days 0 0  
Month to date cooling degree days 0  
Year to date cooling degree days 0  
Moisture  
Dew Point 18 °F    
Average Humidity 57    
Maximum Humidity 92    
Minimum Humidity 38    
Precipitation  
Precipitation 0.00 in 0.11 in 0.74 in (1967)
Month to date precipitation 2.95  
Year to date precipitation 2.95  
Sea Level Pressure  
Sea Level Pressure 29.84 in    
Wind  
Wind Speed 4 mph (South)    
Max Wind Speed 16 mph    
Max Gust Speed 23 mph    
Visibility 10 miles    
Events      
T = Trace of Precipitation, MM = Missing Value Source: NWS Daily Summary

Daily Weather History Graph

Daily Weather History Graph

Search for Another Location

Airport:

Trip Planner

Search our weather history database for the weather conditions in past years. The results will help you decide how hot, cold, wet, or windy it might be!

Date:

Astronomy

Jan. 26, 2014 Rise Set
Actual Time 6:41 AM CST 4:54 PM CST
Civil Twilight 6:13 AM CST 5:21 PM CST
Nautical Twilight 5:42 AM CST 5:53 PM CST
Astronomical Twilight 5:11 AM CST 6:23 PM CST
Moon 2:16 AM CST (1/26) 12:43 PM CST (1/26)
Length of Visible Light 11h 08m
Length of Day
10h 13m
Waning Crescent, 23% of the Moon is Illuminated
Jan 26
Waning Crescent
Jan 30
New
Feb 6
First Quarter
Feb 14
Full
Feb 22
Last Quarter

Hourly Weather History & Observations

Time (CST) Temp. Windchill Dew Point Humidity Pressure Visibility Wind Dir Wind Speed Gust Speed Precip Events Conditions
12:15 AM 23.2 °F - 4.5 °F 45% 29.96 in 10.0 mi Calm Calm - N/A   Clear
12:35 AM 17.8 °F - 5.7 °F 59% 29.97 in 10.0 mi Calm Calm - N/A   Clear
12:55 AM 17.6 °F - 9.0 °F 69% 29.96 in 10.0 mi Calm Calm - N/A   Clear
1:15 AM 16.2 °F - 9.3 °F 74% 29.96 in 10.0 mi Calm Calm - N/A   Clear
1:35 AM 15.3 °F 7.9 °F 8.1 °F 73% 29.96 in 10.0 mi WNW 4.6 mph - N/A   Clear
1:55 AM 13.8 °F - 8.2 °F 78% 29.96 in 10.0 mi Calm Calm - N/A   Clear
2:15 AM 12.0 °F - 7.7 °F 83% 29.95 in 10.0 mi Calm Calm - N/A   Clear
2:35 AM 12.2 °F - 8.2 °F 84% 29.95 in 10.0 mi Calm Calm - N/A   Clear
2:55 AM 9.3 °F - 5.0 °F 83% 29.95 in 10.0 mi Calm Calm - N/A   Clear
3:15 AM 9.7 °F - 6.1 °F 85% 29.95 in 10.0 mi Calm Calm - N/A   Clear
3:35 AM 10.4 °F - 6.8 °F 85% 29.95 in 10.0 mi Calm Calm - N/A   Clear
3:55 AM 9.0 °F - 5.7 °F 87% 29.94 in 10.0 mi Calm Calm - N/A   Clear
4:15 AM 10.0 °F - 6.6 °F 86% 29.94 in 10.0 mi Calm Calm - N/A   Scattered Clouds
4:35 AM 9.9 °F - 7.2 °F 89% 29.94 in 10.0 mi Calm Calm - N/A   Mostly Cloudy
4:55 AM 11.5 °F - 8.2 °F 87% 29.93 in 10.0 mi Calm Calm - N/A   Overcast
5:15 AM 13.1 °F - 9.1 °F 84% 29.93 in 10.0 mi Calm Calm - N/A   Overcast
5:35 AM 12.7 °F - 8.4 °F 83% 29.92 in 10.0 mi Calm Calm - N/A   Overcast
5:55 AM 10.8 °F - 7.9 °F 88% 29.92 in 10.0 mi Calm Calm - N/A   Scattered Clouds
6:15 AM 10.9 °F - 7.2 °F 85% 29.93 in 10.0 mi Calm Calm - N/A   Clear
6:35 AM 10.0 °F - 7.9 °F 91% 29.92 in 10.0 mi Calm Calm - N/A   Clear
6:55 AM 10.0 °F - 7.2 °F 88% 29.92 in 10.0 mi Calm Calm - N/A   Clear
7:15 AM 9.0 °F - 7.2 °F 92% 29.91 in 10.0 mi Calm Calm - N/A   Clear
7:35 AM 10.8 °F - 8.2 °F 90% 29.91 in 10.0 mi Calm Calm - N/A   Clear
7:55 AM 13.8 °F - 9.5 °F 83% 29.90 in 10.0 mi Calm Calm - N/A   Clear
8:15 AM 16.7 °F - 10.0 °F 75% 29.88 in 10.0 mi Calm Calm - N/A   Clear
8:35 AM 25.7 °F 17.1 °F 7.0 °F 45% 29.89 in 10.0 mi SSE 8.1 mph - N/A   Scattered Clouds
8:55 AM 28.2 °F 23.1 °F 7.9 °F 42% 29.88 in 10.0 mi SE 4.6 mph - N/A   Scattered Clouds
9:15 AM 31.1 °F 23.7 °F 8.6 °F 39% 29.88 in 10.0 mi SSE 8.1 mph 17.3 mph N/A   Clear
9:35 AM 32.2 °F 25.0 °F 9.0 °F 38% 29.87 in 10.0 mi SSE 8.1 mph - N/A   Clear
9:55 AM 33.3 °F 25.1 °F 10.6 °F 39% 29.88 in 10.0 mi South 10.4 mph 17.3 mph N/A   Clear
10:15 AM 33.6 °F 24.1 °F 11.8 °F 41% 29.87 in 10.0 mi SSE 13.8 mph 21.9 mph N/A   Clear
10:35 AM 34.7 °F 26.4 °F 12.6 °F 40% 29.87 in 10.0 mi SSE 11.5 mph 20.7 mph N/A   Clear
10:55 AM 36.9 °F 30.1 °F 14.4 °F 40% 29.85 in 10.0 mi SE 9.2 mph - N/A   Clear
11:15 AM 38.5 °F 32.1 °F 15.6 °F 39% 29.84 in 10.0 mi ESE 9.2 mph - N/A   Clear
11:35 AM 39.7 °F 34.3 °F 17.8 °F 41% 29.82 in 10.0 mi SE 8.1 mph 16.1 mph N/A   Clear
11:55 AM 41.2 °F 35.5 °F 19.2 °F 41% 29.80 in 10.0 mi SE 9.2 mph 16.1 mph N/A   Clear
12:15 PM 42.8 °F 37.5 °F 20.7 °F 41% 29.80 in 10.0 mi SE 9.2 mph - N/A   Clear
12:35 PM 43.7 °F 40.3 °F 22.5 °F 43% 29.79 in 10.0 mi SSE 5.8 mph - N/A   Clear
12:55 PM 45.0 °F 40.6 °F 23.4 °F 43% 29.77 in 10.0 mi SSE 8.1 mph 16.1 mph N/A   Clear
1:15 PM 45.7 °F 39.5 °F 25.0 °F 44% 29.77 in 10.0 mi South 13.8 mph 18.4 mph N/A   Clear
1:35 PM 46.9 °F - 26.4 °F 45% 29.76 in 10.0 mi South 9.2 mph 17.3 mph N/A   Clear
1:55 PM 47.3 °F - 26.4 °F 44% 29.75 in 10.0 mi South 6.9 mph 18.4 mph N/A   Clear
2:15 PM 47.7 °F - 27.0 °F 45% 29.75 in 10.0 mi South 11.5 mph 19.6 mph N/A   Clear
2:35 PM 48.6 °F - 27.3 °F 44% 29.75 in 10.0 mi South 8.1 mph 17.3 mph N/A   Clear
2:55 PM 48.7 °F - 27.1 °F 43% 29.75 in 10.0 mi SSE 5.8 mph - N/A   Clear
3:15 PM 48.7 °F - 27.3 °F 43% 29.75 in 10.0 mi South 5.8 mph - N/A   Clear
3:35 PM 49.3 °F - 27.1 °F 42% 29.75 in 10.0 mi SW 5.8 mph - N/A   Clear
3:55 PM 49.6 °F - 27.9 °F 43% 29.75 in 10.0 mi SSE 3.5 mph - N/A   Clear
4:15 PM 49.1 °F - 28.2 °F 44% 29.75 in 10.0 mi SSW 6.9 mph - N/A   Clear
4:35 PM 49.3 °F - 28.4 °F 45% 29.75 in 10.0 mi SSW 10.4 mph 17.3 mph N/A   Clear
4:55 PM 48.4 °F - 28.6 °F 46% 29.75 in 10.0 mi South 5.8 mph - N/A   Clear
5:15 PM 48.0 °F - 28.4 °F 47% 29.75 in 10.0 mi SSW 6.9 mph - N/A   Clear
5:35 PM 48.2 °F - 28.4 °F 46% 29.75 in 10.0 mi SSW 8.1 mph 19.6 mph N/A   Clear
5:55 PM 47.7 °F - 28.4 °F 47% 29.75 in 10.0 mi SSW 9.2 mph 17.3 mph N/A   Clear
6:15 PM 48.0 °F - 28.4 °F 47% 29.75 in 10.0 mi SSW 11.5 mph 19.6 mph N/A   Clear
6:35 PM 47.3 °F - 28.4 °F 48% 29.76 in 10.0 mi SSW 9.2 mph - N/A   Clear
6:55 PM 46.9 °F - 28.6 °F 49% 29.76 in 10.0 mi SSW 6.9 mph - N/A   Clear
7:15 PM 46.4 °F 42.9 °F 28.4 °F 50% 29.76 in 10.0 mi SSW 6.9 mph - N/A   Clear
7:35 PM 46.9 °F - 28.4 °F 49% 29.77 in 10.0 mi SSW 6.9 mph - N/A   Clear
7:55 PM 47.3 °F - 28.4 °F 48% 29.76 in 10.0 mi South 16.1 mph 23.0 mph N/A   Clear
8:15 PM 46.9 °F - 28.4 °F 49% 29.77 in 10.0 mi SW 8.1 mph - N/A   Clear
8:35 PM 47.3 °F - 28.4 °F 48% 29.77 in 10.0 mi SSW 8.1 mph 23.0 mph N/A   Clear
8:55 PM 46.9 °F - 28.4 °F 49% 29.77 in 10.0 mi SSW 8.1 mph 20.7 mph N/A   Clear
9:15 PM 46.9 °F - 28.4 °F 49% 29.78 in 10.0 mi SW 5.8 mph 18.4 mph N/A   Clear
9:35 PM 47.5 °F - 28.8 °F 48% 29.77 in 10.0 mi SSW 6.9 mph - N/A   Scattered Clouds
9:55 PM 47.5 °F - 28.9 °F 49% 29.77 in 10.0 mi WSW 8.1 mph - N/A   Mostly Cloudy
10:15 PM 48.0 °F - 29.1 °F 48% 29.77 in 10.0 mi SW 13.8 mph 19.6 mph N/A   Mostly Cloudy
10:35 PM 47.7 °F - 29.1 °F 49% 29.77 in 10.0 mi SW 10.4 mph 19.6 mph N/A   Scattered Clouds
10:55 PM 47.5 °F - 29.3 °F 49% 29.78 in 10.0 mi SW 10.4 mph 20.7 mph N/A   Scattered Clouds
11:15 PM 48.4 °F - 29.3 °F 48% 29.77 in 10.0 mi SSW 6.9 mph 20.7 mph N/A   Mostly Cloudy
11:35 PM 48.0 °F - 29.3 °F 48% 29.77 in 10.0 mi South 6.9 mph 17.3 mph N/A   Overcast
11:55 PM 47.5 °F - 29.3 °F 49% 29.76 in 10.0 mi SSW 10.4 mph 16.1 mph N/A   Overcast